| time (UTC) | temp F | wind direction | speed knots | gust knots | rain 1hr in | rain 24hr in | rain mn in | humidity % | barometer mb |
| 20260506000002 | 35 | 294 | 4.3 | 0.0 | 0.00 | 0.00 | 0.00 | 61 | 1018.2 |
| 20260505234502 | 35 | 294 | 4.3 | 0.0 | 0.00 | 0.00 | 0.00 | 61 | 1018.2 |
| 20260505233001 | 35 | 294 | 4.3 | 0.0 | 0.00 | 0.00 | 0.00 | 61 | 1018.2 |
| 20260505231503 | 35 | 294 | 4.3 | 0.0 | 0.00 | 0.00 | 0.00 | 61 | 1018.2 |
| 20260505230001 | 35 | 294 | 4.3 | 0.0 | 0.00 | 0.00 | 0.00 | 61 | 1018.2 |
| 20260505224503 | 36 | 294 | 4.3 | 0.0 | 0.00 | 0.00 | 0.00 | 61 | 1018.2 |
| 20260505223001 | 36 | 294 | 4.3 | 0.0 | 0.00 | 0.00 | 0.00 | 61 | 1018.2 |
| 20260505221502 | 37 | 293 | 5.2 | 0.0 | 0.00 | 0.00 | 0.00 | 61 | 1018.2 |
| 20260505220002 | 37 | 293 | 5.2 | 0.0 | 0.00 | 0.00 | 0.00 | 61 | 1018.2 |
| 20260505213002 | 38 | 293 | 5.2 | 0.0 | 0.00 | 0.00 | 0.00 | 61 | 1018.2 |
| 20260505211504 | 38 | 293 | 5.2 | 0.0 | 0.00 | 0.00 | 0.00 | 61 | 1018.2 |
| 20260505210003 | 38 | 293 | 5.2 | 0.0 | 0.00 | 0.00 | 0.00 | 61 | 1018.2 |
| 20260505204505 | 39 | 293 | 5.2 | 0.0 | 0.00 | 0.00 | 0.00 | 61 | 1018.2 |
| 20260505203002 | 40 | 297 | 4.3 | 0.0 | 0.00 | 0.00 | 0.00 | 61 | 1018.2 |
| 20260505201504 | 40 | 297 | 4.3 | 0.0 | 0.00 | 0.00 | 0.00 | 61 | 1018.2 |
| 20260505200002 | 40 | 297 | 4.3 | 0.0 | 0.00 | 0.00 | 0.00 | 61 | 1018.2 |
| 20260505194502 | 41 | 298 | 6.1 | 0.0 | 0.00 | 0.00 | 0.00 | 61 | 1018.2 |
| 20260505193002 | 41 | 298 | 6.1 | 0.0 | 0.00 | 0.00 | 0.00 | 61 | 1018.2 |
| 20260505191501 | 42 | 298 | 6.1 | 0.0 | 0.00 | 0.00 | 0.00 | 61 | 1018.2 |
| 20260505190003 | 42 | 298 | 6.1 | 0.0 | 0.00 | 0.00 | 0.00 | 61 | 1018.2 |
| 20260505184501 | 43 | 298 | 6.1 | 0.0 | 0.00 | 0.00 | 0.00 | 61 | 1018.2 |
| 20260505183002 | 44 | 308 | 5.2 | 0.0 | 0.00 | 0.00 | 0.00 | 61 | 1018.2 |
| 20260505181502 | 44 | 308 | 5.2 | 0.0 | 0.00 | 0.00 | 0.00 | 61 | 1018.2 |
| 20260505180003 | 44 | 300 | 6.1 | 0.0 | 0.00 | 0.00 | 0.00 | 61 | 1018.2 |
| 20260505174502 | 45 | 300 | 6.1 | 0.0 | 0.00 | 0.00 | 0.00 | 61 | 1018.2 |
| 20260505173002 | 45 | 300 | 6.1 | 0.0 | 0.00 | 0.00 | 0.00 | 61 | 1018.2 |
| 20260505171501 | 46 | 300 | 6.1 | 0.0 | 0.00 | 0.00 | 0.00 | 61 | 1018.2 |
| 20260505170003 | 47 | 300 | 6.1 | 0.0 | 0.00 | 0.00 | 0.00 | 61 | 1018.2 |
| 20260505164501 | 47 | 301 | 6.1 | 0.0 | 0.00 | 0.00 | 0.00 | 61 | 1018.2 |
| 20260505163002 | 47 | 301 | 6.1 | 0.0 | 0.00 | 0.00 | 0.00 | 61 | 1018.2 |
| 20260505161501 | 47 | 296 | 7.0 | 0.0 | 0.00 | 0.00 | 0.00 | 61 | 1018.2 |
| 20260505153002 | 47 | 296 | 7.0 | 0.0 | 0.00 | 0.00 | 0.00 | 61 | 1018.2 |
| 20260505151502 | 48 | 296 | 7.0 | 0.0 | 0.00 | 0.00 | 0.00 | 61 | 1018.2 |
| 20260505124502 | 51 | 299 | 4.3 | 0.0 | 0.00 | 0.00 | 0.00 | 61 | 1018.2 |
| 20260505123004 | 51 | 307 | 4.3 | 0.0 | 0.00 | 0.00 | 0.00 | 61 | 1018.2 |
| 20260505121503 | 51 | 307 | 4.3 | 0.0 | 0.00 | 0.00 | 0.00 | 61 | 1018.2 |
| 20260505120003 | 50 | 307 | 4.3 | 0.0 | 0.00 | 0.00 | 0.00 | 61 | 1018.2 |
| 20260505114504 | 51 | 317 | 3.5 | 0.0 | 0.00 | 0.00 | 0.00 | 61 | 1018.2 |
| 20260505113002 | 51 | 317 | 3.5 | 0.0 | 0.00 | 0.00 | 0.00 | 61 | 1018.2 |
| 20260505111503 | 51 | 317 | 3.5 | 0.0 | 0.00 | 0.00 | 0.00 | 61 | 1018.2 |
| 20260505101503 | 49 | 324 | 4.3 | 0.0 | 0.00 | 0.00 | 0.00 | 61 | 1018.2 |
| 20260505100002 | 50 | 325 | 5.2 | 0.0 | 0.00 | 0.00 | 0.00 | 61 | 1018.2 |
| 20260505094502 | 51 | 325 | 5.2 | 0.0 | 0.00 | 0.00 | 0.00 | 61 | 1018.2 |
| 20260505093006 | 54 | 325 | 5.2 | 0.0 | 0.00 | 0.00 | 0.00 | 61 | 1018.2 |
| 20260505090002 | 55 | 325 | 5.2 | 0.0 | 0.00 | 0.00 | 0.00 | 61 | 1018.2 |
| 20260505084502 | 53 | 321 | 6.1 | 0.0 | 0.00 | 0.00 | 0.00 | 61 | 1018.2 |
| 20260505083005 | 55 | 321 | 6.1 | 0.0 | 0.00 | 0.00 | 0.00 | 61 | 1018.2 |
| 20260505081502 | 55 | 321 | 6.1 | 0.0 | 0.00 | 0.00 | 0.00 | 61 | 1018.2 |
| 20260505080004 | 53 | 306 | 6.1 | 0.0 | 0.00 | 0.00 | 0.00 | 61 | 1018.2 |
| 20260505074502 | 56 | 306 | 6.1 | 0.0 | 0.00 | 0.00 | 0.00 | 61 | 1018.2 |
| 20260505073004 | 53 | 306 | 6.1 | 0.0 | 0.00 | 0.00 | 0.00 | 61 | 1018.2 |
| 20260505071503 | 52 | 306 | 6.1 | 0.0 | 0.00 | 0.00 | 0.00 | 61 | 1018.2 |
| 20260505070005 | 49 | 306 | 6.1 | 0.0 | 0.00 | 0.00 | 0.00 | 61 | 1018.2 |
| 20260505064501 | 41 | 294 | 7.0 | 0.0 | 0.00 | 0.00 | 0.00 | 61 | 1018.2 |
| 20260505063005 | 36 | 294 | 7.0 | 0.0 | 0.00 | 0.00 | 0.00 | 61 | 1018.2 |
| 20260505061501 | 36 | 290 | 7.0 | 0.0 | 0.00 | 0.00 | 0.00 | 61 | 1018.2 |
| 20260505060003 | 35 | 290 | 7.0 | 0.0 | 0.00 | 0.00 | 0.00 | 61 | 1018.2 |
| 20260505054501 | 35 | 290 | 7.0 | 0.0 | 0.00 | 0.00 | 0.00 | 61 | 1018.2 |
| 20260505053003 | 34 | 290 | 7.0 | 0.0 | 0.00 | 0.00 | 0.00 | 61 | 1018.2 |
| 20260505051502 | 34 | 290 | 7.0 | 0.0 | 0.00 | 0.00 | 0.00 | 61 | 1018.2 |
| 20260505041502 | 33 | 296 | 7.8 | 0.0 | 0.00 | 0.00 | 0.00 | 61 | 1018.2 |
| 20260505040005 | 33 | 296 | 7.8 | 0.0 | 0.00 | 0.00 | 0.00 | 61 | 1018.2 |
| 20260505034502 | 33 | 299 | 7.8 | 0.0 | 0.00 | 0.00 | 0.00 | 61 | 1018.2 |
| 20260505033002 | 34 | 299 | 7.8 | 0.0 | 0.00 | 0.00 | 0.00 | 61 | 1018.2 |
| 20260505031501 | 34 | 299 | 7.8 | 0.0 | 0.00 | 0.00 | 0.00 | 61 | 1018.2 |
| 20260505030002 | 34 | 299 | 7.8 | 0.0 | 0.00 | 0.00 | 0.00 | 61 | 1018.2 |
| 20260505023002 | 35 | 295 | 7.0 | 0.0 | 0.00 | 0.00 | 0.00 | 61 | 1018.2 |
| 20260505021501 | 35 | 295 | 7.0 | 0.0 | 0.00 | 0.00 | 0.00 | 61 | 1018.2 |
| 20260505020004 | 35 | 294 | 7.0 | 0.0 | 0.00 | 0.00 | 0.00 | 61 | 1018.2 |
| 20260505014504 | 35 | 294 | 7.0 | 0.0 | 0.00 | 0.00 | 0.00 | 61 | 1018.2 |
| 20260505013003 | 35 | 294 | 7.0 | 0.0 | 0.00 | 0.00 | 0.00 | 61 | 1018.2 |
| 20260505011503 | 36 | 294 | 7.0 | 0.0 | 0.00 | 0.00 | 0.00 | 61 | 1018.2 |
| 20260505010004 | 36 | 294 | 7.0 | 0.0 | 0.00 | 0.00 | 0.00 | 61 | 1018.2 |
| 20260505004502 | 36 | 288 | 7.8 | 0.0 | 0.00 | 0.00 | 0.00 | 61 | 1018.2 |
| 20260505003002 | 35 | 288 | 7.8 | 0.0 | 0.00 | 0.00 | 0.00 | 61 | 1018.2 |
| 20260505001502 | 35 | 288 | 7.8 | 0.0 | 0.00 | 0.00 | 0.00 | 61 | 1018.2 |